Regional Weather Roundup
Issued by NWS

Home | Current Version | Previous Version | Graphics & Text | Print | Product List | Glossary On
Versions: 1 2 3 4 5 6 7 8 9 10 11 12 13 14 15 16 17 18 19 20 21 22 23 24 25 26 27 28 29 30 31 32 33 34 35 36 37 38 39 40 41 42 43 44 45 46 47 48 49 50
000
ASUS45 KABQ 232201
RWRNM
NEW MEXICO REGIONAL WEATHER ROUNDUP
NATIONAL WEATHER SERVICE ALBUQUERQUE NM
300 PM MST THU FEB 23 2017

NOTE: "FAIR" MEANS FEW OR NO CLOUDS BELOW 12,000 FEET AGL WITH NO
       SIGNIFICANT WEATHER OR OBSTRUCTIONS TO VISION.

      THIS PRODUCT IS RELEASED AS TWO VERSIONS.  ONE VERSION NEAR
      THE TOP OF THE HOUR CONTAINING PRELIMINARY DATA FROM ALBUQUERQUE
      AND OTHER STATIONS.  A FINAL VERSION WITH ADDITIONAL DATA IS
      ISSUED ABOUT 10 MINUTES AFTER THE HOUR.

NMZ501-503-504-510>518-232300-
NORTHWEST PLATEAU/NORTHCENTRAL MOUNTAINS

CITY           SKY/WX    TMP DP  RH WIND       PRES   REMARKS
FARMINGTON     FAIR      42  -6  13 W22G35    29.71S
LOS ALAMOS     FAIR      42   6  22 SW17G23   29.67S
SANTA FE       FAIR      47   9  21 W21G33    29.65F
TAOS             N/A     39   7  26 W29G40    29.62S WCI  28
ANGEL FIRE     FAIR      33  11  40 W18G29    29.61S WCI  22

$$
NMZ402-403-502-505>509-232300-
WESTCENTRAL MOUNTAINS/SOUTHWEST MOUNTAINS

CITY           SKY/WX    TMP DP  RH WIND       PRES   REMARKS
GALLUP         FAIR      42   9  25 W28G38    29.74S
GRANTS         FAIR      45   7  20 W21G33    29.73S
SILVER CITY    FAIR      57  18  21 W26G37    29.81F

$$
NMZ407-409-411-412-232300-
SOUTHERN DESERTS

CITY           SKY/WX    TMP DP  RH WIND       PRES   REMARKS
DEMING         FAIR      66  21  18 W28G39    29.76F
LAS CRUCES     FAIR      66  24  19 W26G38    29.77S
HOLLOMAN AFB   MOSUNNY   67  15  13 W38G44    29.73R BLWGDUST
ALAMOGORDO     FAIR      68  14  12 W28G45    29.72F
T OR C         FAIR      64   3   9 W20G33    29.69S

$$
NMZ519>523-232300-
CENTRAL VALLEYS/CENTRAL HIGHLANDS

CITY           SKY/WX    TMP DP  RH WIND       PRES   REMARKS
ALBUQUERQUE    FAIR      54   5  14 W26G36    29.66F
DOUBLE EAGLE   MOSUNNY   52   9  17 SW25G35   29.68F
MORIARTY ARPT  FAIR      55   5  13 W30G43    29.65S
CLINES CORNERS FAIR      49   4  16 W33G46    29.63F
BELEN          FAIR      60   4  10 W24G30    29.64F
SOCORRO        FAIR      65  -6   5 SW22G30   29.63S

$$
NMZ524>526-539-540-232300-
SOUTHCENTRAL MOUNTAINS

CITY           SKY/WX    TMP DP  RH WIND       PRES   REMARKS
RUIDOSO        NOT AVBL

$$
NMZ527>531-232300-
NORTHEAST HIGHLANDS/NORTHEAST PLAINS

CITY           SKY/WX    TMP DP  RH WIND       PRES   REMARKS
LAS VEGAS      FAIR      47   6  18 W35G46    29.58S
RATON          FAIR      50   5  16 W24G31    29.51R
CLAYTON        FAIR      64  13  13 SW32G41   29.42R

$$
NMZ532>537-232300-
EASTCENTRAL PLAINS

CITY           SKY/WX    TMP DP  RH WIND       PRES   REMARKS
TUCUMCARI      FAIR      71   7   8 W32G45    29.47R
CANNON AFB     FAIR      71   1   6 W32G45    29.52S
CLOVIS AIRPORT FAIR      72  14  11 W38G47    29.53S

$$
NMZ028-029-538-232300-
SOUTHEAST PLAINS

CITY           SKY/WX    TMP DP  RH WIND       PRES   REMARKS
ROSWELL        FAIR      75  -1   5 W39G52    29.58F
ARTESIA        FAIR      73  16  11 W37G54    29.60S
CARLSBAD       FAIR      76  24  14 W33G48    29.59R
HOBBS          SUNNY     75  19  12 SW36G44   29.61S


$$



USA.gov is the U.S. government's official web portal to all federal, state and local government web resources and services.